Location: Conjunto Santa Maria
(19.9513°S, 43.9599°W)
Time: 12:47:10
(UTC+00:00)

Cosmos 2369 Rocket - Pass Details

Date: 21 January 2021
Orbit: 830 x 851 km, 71.0° (Epoch: 03 March)

Event Time Altitude Azimuth Distance (km) Brightness Sun altitude
Rises 22:45:50 0° 190° (S) 3,433 5.9 -14.7°
Reaches altitude 10° 22:48:23 10° 185° (S) 2,492 5.1 -15.2°
Maximum altitude 22:53:57 52° 109° (ESE) 1,053 2.4 -16.4°
Enters shadow 22:56:58 26° 44° (NE) 1,616 3.1 -17.0°
